Informationen zur Loipe auf der Atzenberger Höhe
 
19.01.2019Höhe
ü. NN
ZeitTemperatur (°C)Nieder-
schlag
Luft-
feuchte
Luft-
druck
Wind
StationaktuellMinimumMaximumaktuellMaximum
Aldingen654 m21:36-5,8-10,0 (05:59)-2,0 (14:43)0,0 l/m²91%1016,55,6 km/h (2 Bft) SO14,8 km/h (3 Bft) S-SO (13:07)
Allmannsweiler625 m21:35-8,7-8,7 (21:15)-2,8 (15:25)0,0 l/m²93%1015,50,0 km/h (0 Bft) SO12,9 km/h (3 Bft) SW (13:50)
Allmendingen541 m21:35-8,2-10,2 (07:25)-3,4 (00:35)0,0 l/m²88%1015,90,0 km/h (0 Bft) S-SW16,1 km/h (3 Bft) SO (09:05)
Altshausen574 m21:35-8,1-8,1 (21:30)-2,3 (14:44)0,0 l/m²88%1011,51,6 km/h (1 Bft) W-SW11,3 km/h (2 Bft) N-NO (00:05)
Amstetten-Reutti663 m21:35-6,8-8,0 (06:10)-4,1 (14:40)0,0 l/m²94%1015,60,0 km/h (0 Bft) S-SO27,4 km/h (4 Bft) O (09:45)
Amtzell-Grenis677 m21:35-7,9-7,9 (21:25)-2,1 (14:15)0,0 l/m²88%1017,06,4 km/h (2 Bft) NO16,1 km/h (3 Bft) O-SO (00:00)
Aulendorf570 m21:35-7,6-7,6 (21:35)-2,5 (15:13)0,0 l/m²86%1015,00,0 km/h (0 Bft) S-SW14,5 km/h (3 Bft) NO (00:34)
Bad Krozingen233 m21:30-3,0-5,7 (08:50)0,4 (15:35)0,0 l/m²92%1015,50,0 km/h (0 Bft) O6,6 km/h (2 Bft) W-NW (13:25)
Bad Saulgau595 m21:35-7,5-7,5 (21:35)-1,9 (15:15)0,0 l/m²90%1014,41,6 km/h (1 Bft) W-NW12,9 km/h (3 Bft) W (07:00)
Bad Saulgau-Lampertsweiler627 m21:35-7,3-7,5 (21:00)-2,8 (00:00)0,0 l/m²89%1017,90,0 km/h (0 Bft) O-SO14,5 km/h (3 Bft) S-SO (10:50)
Bad Schussenried572 m21:35-6,8-7,1 (20:40)-2,6 (15:10)0,0 l/m²91%1013,70,0 km/h (0 Bft) SW11,3 km/h (2 Bft) O-NO (00:15)
Bergatreute615 m21:35-9,4-10,2 (20:45)-2,0 (14:20)0,0 l/m²94%1015,70,0 km/h (0 Bft) N12,9 km/h (3 Bft) O-NO (00:00)
Biberach (Riss), Boehringer533 m21:30-8,0-8,0 (21:30)-2,9 (00:00)0,0 l/m²94%1013,80,0 km/h (0 Bft) N16,6 km/h (3 Bft) S (13:50)
Biberach (Riss), Realschule553 m21:35-8,8-8,8 (21:35)-3,2 (00:00)0,0 l/m²92%1016,70,0 km/h (0 Bft) O-SO16,1 km/h (3 Bft) W-SW (12:55)
Bodnegg-Rotheidlen677 m21:35-7,8-8,1 (06:20)-2,7 (14:25)0,0 l/m²93%1015,80,0 km/h (0 Bft) W-NW14,5 km/h (3 Bft) O (00:00)
Burgrieden523 m21:35-6,6-6,6 (21:30)-3,2 (00:00)0,0 l/m²86%1015,50,0 km/h (0 Bft) S12,9 km/h (3 Bft) S (17:35)
Burgrieden-Hochstetten510 m21:35-7,3-7,3 (21:30)-2,8 (22:00)0,0 l/m²91%1015,70,0 km/h (0 Bft) SO14,5 km/h (3 Bft) O (22:10)
Donauwörth411 m21:35-6,1-6,1 (21:35)-0,8 (15:05)0,0 l/m²91%1015,80,0 km/h (0 Bft) O-SO22,5 km/h (4 Bft) O (10:45)
Ebersbach579 m21:35-8,3-8,3 (21:35)-2,6 (00:00)0,0 l/m²92%1016,40,0 km/h (0 Bft) O17,7 km/h (3 Bft) O-NO (00:00)
Ebersbach-Boos605 m21:35-8,3-8,3 (21:25)-2,5 (15:15)0,0 l/m²93%1016,20,0 km/h (0 Bft) O-SO22,5 km/h (4 Bft) O (00:05)
Ebersbach-Menzenweiler661 m21:35-6,6-6,7 (20:20)-3,1 (15:05)0,0 l/m²95%1016,28,0 km/h (2 Bft) O-NO29,0 km/h (5 Bft) O-NO (00:00)
Ehingen535 m21:35-8,2-8,4 (21:25)-3,7 (00:50)0,0 l/m²86%1015,90,0 km/h (0 Bft) N-NW12,8 km/h (3 Bft) N-NW (08:50)
Erlenmoos645 m21:35-8,7-8,7 (21:25)-2,6 (15:15)0,0 l/m²85%1015,80,0 km/h (0 Bft) N-NO0,0 km/h (0 Bft) W (00:00)
Ertingen569 m21:35-7,0-7,0 (21:35)-2,8 (15:20)0,0 l/m²89%1015,40,0 km/h (0 Bft) O-SO12,9 km/h (3 Bft) N-NO (07:10)
Friedrichshafen405 m21:35-4,7-5,0 (08:15)2,1 (15:25)0,0 l/m²87%1015,74,8 km/h (1 Bft) N-NO12,9 km/h (3 Bft) N-NO (22:40)
Günzburg443 m21:30-7,1-7,1 (21:20)-2,2 (15:09)0,0 l/m²89%1013,20,0 km/h (0 Bft) W14,5 km/h (3 Bft) O-SO (09:25)
Höchsten802 m21:35-5,9-7,7 (08:35)-4,1 (14:50)0,0 l/m²93%1013,60,0 km/h (0 Bft) SO38,6 km/h (5 Bft) N-NO (00:35)
Horgenzell618 m21:35-5,1-5,2 (03:50)-3,7 (00:00)0,0 l/m²90%1013,58,0 km/h (2 Bft) O-NO19,3 km/h (3 Bft) NO (00:25)
Hoßkirch632 m21:35-8,6-8,6 (21:30)-2,7 (14:25)0,0 l/m²91%1014,80,0 km/h (0 Bft) SW20,9 km/h (4 Bft) O-NO (00:35)
Isny, Am Dreifingerbach695 m21:35-9,5-11,4 (06:00)-2,3 (15:05)0,0 l/m²90%1015,64,8 km/h (1 Bft) O-SO8,0 km/h (2 Bft) O (05:25)
Isny, Weidachweg706 m21:35-10,3-11,7 (08:20)-1,3 (14:10)0,0 l/m²87%1017,23,2 km/h (1 Bft) SO11,3 km/h (2 Bft) SW (02:20)
Kappel-Grafenhausen163 m21:30-2,8-4,9 (08:20)2,4 (14:45)0,0 l/m²90%1013,30,0 km/h (0 Bft) N6,4 km/h (2 Bft) N-NO (10:25)
Kirchberg an der Iller584 m21:35-8,0-8,0 (21:35)-3,2 (22:10)0,0 l/m²88%1005,20,0 km/h (0 Bft) S8,0 km/h (2 Bft) S-SW (01:55)
Kißlegg-Staibshof709 m21:35-7,0-7,2 (08:10)-1,4 (15:20)0,0 l/m²95%1015,50,0 km/h (0 Bft) N-NO11,3 km/h (2 Bft) O-NO (00:00)
Kressbronn398 m21:36-4,4-5,1 (07:56)-0,4 (14:52)0,0 l/m²83%1014,50,0 km/h (0 Bft) NO12,9 km/h (3 Bft) NO (01:08)
Kreuzthal-Steinberg-Alpe930 m21:20-6,7-10,0 (08:00)2,6 (12:50)0,0 l/m²100%1015,00,7 km/h (0 Bft) S-SO13,7 km/h (3 Bft) W-NW (00:00)
Kreuzthal-Steinberggipfel1040 m21:30-3,7-8,9 (07:50)0,1 (14:10)-85%1015,011,2 km/h (2 Bft) SW22,7 km/h (4 Bft) O-SO (00:40)
Kristberg im Montafon (AT)1425 m21:35-7,8-9,5 (05:20)3,1 (12:15)0,0 l/m²70%1015,24,8 km/h (1 Bft) N12,9 km/h (3 Bft) N (09:00)
Laupheim500 m21:35-6,9-7,0 (21:35)-3,2 (00:00)0,0 l/m²89%1015,10,0 km/h (0 Bft) SW14,5 km/h (3 Bft) S-SW (12:20)
Lindau-Insel420 m21:35-4,4-6,2 (08:30)1,4 (14:45)0,0 l/m²84%1014,88,0 km/h (2 Bft) N11,3 km/h (2 Bft) W (13:55)
Lindau-Stadt412 m21:35-4,9-6,8 (07:45)-0,4 (11:50)0,0 l/m²85%1015,24,8 km/h (1 Bft) NO9,7 km/h (2 Bft) N (01:10)
Maierhöfen im Allgäu733 m21:40-13,8-15,2 (08:10)1,6 (13:30)0,0 l/m²88%1016,90,0 km/h (0 Bft) SW4,8 km/h (1 Bft) O (01:45)
Maselheim-Sulmingen548 m21:35-8,7-8,8 (21:10)-3,7 (22:00)0,0 l/m²92%1017,03,2 km/h (1 Bft) O-SO12,9 km/h (3 Bft) O (22:00)
Mietingen-Baltringen528 m21:35-7,7-7,7 (21:35)-3,3 (00:00)0,0 l/m²87%1017,50,0 km/h (0 Bft) N-NO12,9 km/h (3 Bft) SO (08:20)
Mindelheim-Apfeltrach620 m21:36-12,6-12,6 (21:35)-2,3 (14:59)0,2 l/m²87%1017,03,2 km/h (1 Bft) NW6,4 km/h (2 Bft) NO (06:59)
Neresheim552 m21:00-4,7-5,6 (09:22)-3,8 (15:33)0,0 l/m²91%1012,20,0 km/h (0 Bft) S15,1 km/h (3 Bft) O-SO (09:22)
Neukirch570 m21:35-6,8-7,4 (07:10)-0,8 (13:00)0,0 l/m²92%1015,84,8 km/h (1 Bft) NO9,7 km/h (2 Bft) NO (23:30)
Ochsenhausen, Birkenstraße613 m21:35-10,2-10,2 (21:35)-3,5 (14:15)0,0 l/m²83%1016,36,4 km/h (2 Bft) O11,3 km/h (2 Bft) O-NO (08:05)
Ochsenhausen, Unt. Wiesen575 m21:35-10,0-10,0 (21:35)-3,7 (00:00)0,0 l/m²90%1017,36,4 km/h (2 Bft) S14,5 km/h (3 Bft) S-SO (08:05)
Ostrach619 m21:35-8,4-8,4 (21:30)-1,3 (14:40)0,0 l/m²92%1014,10,0 km/h (0 Bft) S-SO17,7 km/h (3 Bft) N-NO (23:00)
Ravensburg428 m21:35-5,6-5,6 (21:35)-0,4 (15:10)0,0 l/m²89%1014,96,4 km/h (2 Bft) N-NW16,1 km/h (3 Bft) N-NO (01:45)
Ravensburg-Wernsreute511 m21:35-7,0-7,0 (21:20)-1,7 (15:25)0,0 l/m²91%1017,78,0 km/h (2 Bft) N24,1 km/h (4 Bft) N-NO (22:00)
Reichenbach an der Fils343 m21:35-5,2-5,2 (21:30)-1,8 (11:20)0,0 l/m²84%1017,40,0 km/h (0 Bft) O-SO24,1 km/h (4 Bft) O (20:10)
Reinstetten559 m21:35-10,2-10,2 (21:30)-3,2 (00:00)0,0 l/m²91%1016,26,4 km/h (2 Bft) S17,7 km/h (3 Bft) SO (09:35)
Riedlingen530 m21:35-6,8-6,8 (21:35)-3,2 (15:25)0,0 l/m²90%1015,60,0 km/h (0 Bft) O-NO12,9 km/h (3 Bft) O-NO (00:45)
Schemmerhofen520 m21:35-8,2-8,2 (21:35)-3,0 (00:00)0,0 l/m²91%1015,33,2 km/h (1 Bft) SW12,9 km/h (3 Bft) N-NO (04:00)
Silbertal im Montafon (AT)884 m21:35-7,8-9,2 (06:40)-4,6 (14:50)0,0 l/m²91%1017,40,0 km/h (0 Bft) SO3,2 km/h (1 Bft) S-SO (02:00)
Tettnang466 m21:35-4,8-5,9 (07:35)-0,5 (14:55)0,0 l/m²85%1014,28,0 km/h (2 Bft) O-NO14,5 km/h (3 Bft) O (01:05)
Tuttlingen662 m21:35-7,7-9,6 (05:10)-3,9 (14:35)0,0 l/m²89%1015,81,6 km/h (1 Bft) O-SO11,3 km/h (2 Bft) O-SO (14:40)
Ummendorf547 m21:35-9,2-9,2 (20:55)-3,4 (01:30)0,0 l/m²90%1016,63,2 km/h (1 Bft) O-SO16,1 km/h (3 Bft) SW (13:05)
Ummendorf-Fischbach558 m21:35-10,2-10,2 (20:45)-3,9 (01:25)0,0 l/m²90%1017,10,0 km/h (0 Bft) SO14,5 km/h (3 Bft) O-NO (01:35)
Waldburg707 m21:35-7,4-7,4 (06:45)-3,2 (13:05)0,0 l/m²92%1015,10,0 km/h (0 Bft) N14,5 km/h (3 Bft) N (00:15)
Waltenhofen im Allgäu720 m21:35-12,5-13,7 (07:35)-0,8 (13:35)0,2 l/m²89%1016,30,0 km/h (0 Bft) S-SW4,8 km/h (1 Bft) S-SW (11:55)
Weingarten500 m21:35-7,4-7,4 (21:30)-1,5 (14:25)0,0 l/m²88%1015,53,2 km/h (1 Bft) O-NO8,0 km/h (2 Bft) O-NO (00:55)
Winterlingen785 m21:15-7,6-10,0 (07:00)-3,9 (16:00)0,0 l/m²96%1014,12,9 km/h (1 Bft) SW7,2 km/h (2 Bft) S-SO (10:40)

niederschlagsdatenbank | info | login - erfassung

Sollten Sie Interesse haben, an der Niederschlagsdatenbank teilzunehmen, finden Sie > hier < weitere Informationen.
Datum: . . Kalender
Anmerkung:0,0 = nicht messbarer Niederschlag
 -  = kein Niederschlag
 k  = kumulierter Niederschlag

< 06.01.201908.01.2019 >


Niederschlagswerte vom 07.01.2019    -    derzeit 103 Stationen

Die Niederschlagswerte des gewählten Tages lassen sich durch Klicken auf das Datum sortieren.
Die Angaben sind in l/m².

Station04.01.05.01.06.01.07.01.08.01.09.01.10.01.Bemerkung 07.01.
Aichstetten-Nestbaum-------
Albbruck 0,53,80,03,813,02,80,5
Bewölkt +2°C Nachts Schneeregen in Regen übergehend min. 1°C
Regen Nieselregen Schneeregen
Allmendingen-13,7-4,711,35,5-
Regen Schneeregen Schnee
Amstetten-Reutti-30,82,02,214,67,60,6
Regen Schneeregen Schnee
Schneehöhe: 12 cm
Aulendorf3,615,28,02,22,98,56,0
Nieselregen Schneeregen
Schneehöhe: 14 cm
Aulendorf-Blönried1,0-22,52,13,310,02,8
Schneehöhe: 9 cm
Aulendorf-Zollenreute-19,56,03,0---
Regen Nieselregen Schneeregen Schnee Nebelnässe
Schneehöhe: 12 cm
Bad Buchau-13,05,03,06,07,05,5
Bad Saulgau Walserweg1,06,52,52,55,06,02,0
Regen Schneeregen Schnee
Schneehöhe: 4 cm
Bad Saulgau-Hochberg-------
Bad Schussenried Konradstraße-13,23,93,03,210,13,2
Regen Schneeregen Schnee Schneegriesel
Schneehöhe: 9 cm
Bad Schussenried Lortzingstrasse-12,54,03,04,08,05,0
Schneeregen Schnee
Bad Schussenried Klosterstraße-15,05,03,25,07,03,0
Regen Schneeregen Schnee
Bad Schussenried Theodor-Storm-Strasse-13,34,94,03,810,04,4
Schnee
Bad Schussenried-Hopferbach-17,03,54,04,07,53,0
Schneeregen Schnee
Bad Schussenried-Schwaigfurt-21,05,53,53,08,52,5
Bad Waldsee-Haisterkirch3,528,05,04,03,515,65,1
+0,2/+2,5°C, leichtes Tauwetter, 2. Nachthälfte Schneeregen
Nieselregen Schneeregen
Schneehöhe: 20 cm
Bad Wurzach-Dietmanns-------
Bad Wurzach-Seibranz3,010,510,05,53,011,57,7
Schnee
Schneehöhe: 25 cm
Baienfurt0,516,016,08,06,016,016,0
durch den Regen taut es
Regen Schneeregen Schnee
Schneehöhe: 15 cm
Balzheim1,511,02,51,56,07,05,0
Schneeregen
Schneehöhe: 7 cm
Berg-Kleintobel0,423,012,17,12,98,511,0
Regen Schneeregen Schnee
Schneehöhe: 11 cm
Biberach Amriswilstrasse1,213,03,23,45,38,05,0
Schneeregen
Schneehöhe: 5 cm
Biberach Strölinweg----30,07,5-
Biberach Erlenweg-------
Biberach Neue Heimat 5-------
Biberach Mittelbergstraße 90,712,53,53,05,08,04,0
Regen Schneeregen
Schneehöhe: 6 cm Rest
Biberach-Bergerhausen1,513,03,0-9,07,02,0
Bierstetten-21,04,54,04,210,03,5
Schnee
Blaubeuren-Pappelau-15,010,0----
Schneehöhe: 12 cm
Bühlertal--20,010,010,02,03,0
Regen
Dettingen a. d. Iller-------
Dornstadt-Tomerdingen0,617,30,86,17,58,60,7
Dürnau1,06,53,03,5-9,03,5
Regen Schneeregen Schnee
Eberhardzell Lilienweg3,024,44,75,42,411,46,9
Schneeregen
Schneehöhe: 17 cm
Ebersbach-Roßwälden1,428,212,01,42,17,20,7
Schneehöhe: 5 cm
Ehingen Rosenstraße0,89,00,33,18,54,00,3
Regen Schneeregen Schnee
Schneehöhe: 1 cm
Ehingen Zanderstraße0,98,5-2,16,85,42,5
Schnee
Schneehöhe: 3 cm
Ehingen Schlaufenbühl0,36,82,10,310,08,5-
Schneeregen
Schneehöhe: 5 durchbrochen
Ehingen Schillerstraße-9,90,03,48,43,0-
Schneeregen Schnee
Schneehöhe: 0 cm Rest
Ehingen-Herbertshofen-------
Eislingen3,229,211,64,57,57,52,1
Regen
Schneehöhe: Flecken
Erbach-Bach-7,00,56,07,52,51,0
Erlenmoos1,817,43,21,15,110,96,9
Schnee
Schneehöhe: 14 cm
Füramoos-0,00,76,92,1-0,0
Gutenzell-18,01,5-6,0--
leichter Schneefall
Böiger Wind
Schnee
Schneehöhe: 8,0cm
Gutenzell-Hürbel1,013,52,53,06,06,53,0
Schnee
Herbertingen Drosselweg0,37,01,21,37,58,53,5
Kurzer Regen- Graupelschauer am Nachmittag. Schnee in der zweiten Nach [weiterlesen...]
Regen Schnee Graupel
Schneehöhe: 3cm
Herbertingen Hirschstrasse1,55,01,5-7,06,03,0
Schneehöhe: Reste
Hochdorf-Schweinhausen-26,24,8--21,5-
Schneehöhe: 13 cm
Hohentengen-Bremen1,010,01,51,55,55,03,0
Regen Schnee
Schneehöhe: 2,0
Horgenzell-Ringgenweiler1,112,54,66,84,04,34,2
Schnee
Schneehöhe: 12 cm
Hüttisheim0,09,01,51,05,57,03,0
Schneeregen Schnee
Schneehöhe: Reste
Illerkirchberg0,011,30,52,29,04,01,8
Regen Schneeregen Schnee
Schneehöhe: 1-2 dbr
Inzigkofen0,16,20,12,07,03,20,0
Nieselregen Schnee
Schneehöhe: 4 cm
Isny0,624,020,83,65,812,05,0
Schnee hat sich gesetzt
Schnee
Schneehöhe: 55 cm
Kirchberg-15,53,02,07,28,06,0
1 cm Neuschnee
Schneeregen Schnee
Schneehöhe: 11 cm
Kreuzthal-Steinberg-Alpe0,946,119,87,39,122,08,3
Regen Nieselregen Schneeregen Schnee
Schneehöhe: 87 cm
Langenau0,08,50,53,08,54,02,0
Schnee
Langenenslingen0,37,90,21,44,34,60,6
Regen Nieselregen Schneeregen Schnee
Schneehöhe: Reste
Leutkirch Unterer Auenweg 251,247,310,96,42,811,59,0
Schnee
Leutkirch Nachtigallenweg 282,030,08,08,04,510,011,0
Schnee
Schneehöhe: 28cm
Leutkirch-Adrazhofen3,536,012,06,56,512,07,0
Schnee
Schneehöhe: 45 cm
Mietingen Seerosenweg 10-------
Regen Nieselregen
Schneehöhe: 3 cm
Mietingen-Walpertshofen-------
Mittelbiberach-Reute1,013,23,54,05,26,65,4
Nieselregen Schneeregen
Schneehöhe: 7 cm
Moosburg0,48,23,61,3-15,05,6
Einzelne kleinere Schnee- Regenschauer. Regen, Nieselregen. In der Nac [weiterlesen...]
Regen Nieselregen Schneeregen Schnee
Schneehöhe: durchbrochen
Münsingen-Rietheim1,027,07,23,411,418,22,8
Regen Schneeregen Schnee
Schneehöhe: 19 cm
Neresheim3,313,51,5-11,46,51,5
Schneehöhe: 4 cm
Oberdischingen-------
Ochsenhausen0,37,22,01,31,810,45,1
Schnee
Schneehöhe: 10 cm
Öpfingen-7,00,35,07,82,51,1
Schneeregen Schnee
Schneehöhe: "Reste"
Ostrach Uhlandweg-8,51,52,0---
Regen Nieselregen Schneeregen
Schneehöhe: 3 cm
Pfaffenhofen-Kadeltshofen0,07,02,03,06,07,05,0
Schneeregen
Schneehöhe: Reste
Pfullendorf Am Schweizersbild -------
Schneehöhe: 5 cm
Rangendingen-8,0-4,03,0-3,0
Ravensburg Bleicherstraße--54,6-4,48,05,9
Ravensburg-Schmalegg1,017,06,05,05,04,56,5
Schneeregen
Schneehöhe: 10 cm
Ravensburg-Wernsreute-15,06,20,69,01,81,6
Schnee
Ravensburg-Weststadt3,021,013,09,08,81,55,5
Schneeregen
Schneehöhe: 11 cm
Riedhausen0,66,81,41,44,03,63,4
Temp. -0,6°C / +2,4°C, Windböen SW 27,1 km/h
Schneeregen Schnee
Schneehöhe: 5
Riedlingen-Neufra-------
Schelklingen-Gundershofen-33,0-7,015,012,0-
Temp. zw. +0,1°C und +4,4°C. Ganzer Tag bewölkt. Nachts nasser Schn [weiterlesen...]
Schneehöhe: 10 cm
Schemmerberg0,59,12,0-5,012,05,0
Schwörstadt-3,0-2,67,4-0,2
Nieselregen Schnee
Sigmaringendorf-6,30,21,15,12,1-
Schnee
Tuttlingen-Möhringen Eßlinger Straße-8,00,21,04,25,00,0
In der Nacht zum 8. Januar 2cm Neuschnee.
Schnee
Schneehöhe: 6 cm
Ulm    neu  -------
Ummendorf Tulpenweg--26,513,56,011,03,0
die Schneehöhenangabe muss ich heute leider auslassen
Regen Schneeregen Schnee Graupel
Schneehöhe: 7 cm
Ummendorf Friedrich-Schiller-Str.-------
Uttenweiler-Ahlen-11,22,02,7-12,22,8
Regen
Vöhringen (Schwarzwald)1,55,02,0-1,53,0-
Waldburg8,026,014,010,010,013,57,5
Schneehöhe: 41 cm
Wangen-Atzenberg-------
Schneehöhe: Schneedecke (Tag 5)
Wangen-Bergerhöhe0,845,721,87,19,111,58,4
Regen Schnee
Schneehöhe: 50 cm
Warthausen An der Schloßhalde -------
Warthausen Schwabenwiesen ----6,4--
Warthausen-Barabein---3,05,5--
Regen
Weingarten Laurastraße1,022,513,04,24,08,511,0
+ 0,4 ° C um 4.30 Uhr, Strassenglätte
Regen Nieselregen Schneeregen
Schneehöhe: 10 cm
Weingarten Hoyerstraße-------
Weingarten Marienstraße1,025,012,03,56,510,05,0
Regen Schneeregen Schnee
Schneehöhe: 10 cm
Wolfegg-Veesers-------
Wolpertswende0,40,00,02,210,30,00,0
Regen Schneeregen
Schneehöhe: 20 cm

Stillgelegte Niederschlagsstationen    -    derzeit 46 Stationen

StationLetzte Meldung04.01.05.01.06.01.07.01.08.01.09.01.10.01.Bemerkung 07.01.
Allmannsweiler02.09.2014-------
Aulendorf-Rugetsweiler 25.07.2013-------
Bad Saulgau Willi-Burth-Straße19.09.2011-------
Bad Saulgau Eichendorffweg28.03.2013-------
Bad Saulgau Seewattenstraße 12815.01.2014-------
Bad Saulgau-Lampertsweiler18.02.2015-------
Bad Schussenried-Steinhausen26.09.2012-------
Bad Waldsee-Michelwinnanden31.12.2014-------
Bad Waldsee-Osterhofen06.03.2015-------
Bad Waldsee-Steinach10.11.2013-------
Bad Wurzach-Haidgau07.10.2012-------
Bad Wurzach-Ziegelbach07.11.2014-------
Bergatreute13.02.2012-------
Betzenweiler05.01.2017-------
Burgrieden28.10.2013-------
Burgrieden-Rot18.09.2013-------
Eberhardzell Schillerstraße05.07.2010-------
Ehingen Am Elzengraben17.06.2016-------
Gammertingen16.01.2016-------
Griesingen06.10.2015-------
Günzburg31.12.2010-------
Hoßkirch05.01.2018-------
Ingoldingen-Grodt19.11.2016-------
Kisslegg02.05.2011-------
Krauchenwies-Hausen23.11.2013-------
Kressbronn10.03.2010-------
Leutkirch-Ottmannshofen27.07.2012-------
Leutkirch-Rotis08.05.2016-------
Leutkirch-Wuchzenhofen19.09.2016-------
Mietingen Hangweg 1530.12.2017-------
Mössingen-Bästenhardt21.07.2014-------
Ostrach Heiligenberger Straße19.08.2013-------
Pfullendorf Ringstraße 18.03.2012-------
Ravensburg Olgastraße30.10.2016-------
Seltmans09.04.2013-------
Stuttgart-Bad Cannstatt03.02.2013-------
Stuttgart-Möhringen23.04.2017-------
Stuttgart-Rohr07.11.2012-------
Talheim21.08.2016-------
Tannheim22.10.2017-------
Tettnang-Ramsbach26.03.2011-------
Tuttlingen-Möhringen Belchenstraße01.01.2015-------
Ummendorf Bergstraße23.10.2017-------
Vogt22.05.2015-------
Weingarten Bischof-Sproll-Straße30.06.2011-------
Wilhelmsdorf Riedhauser Straße 28.10.2012-------
Wilhelmsdorf Seefeld20.08.2013-------
Wurmlingen14.10.2016-------
Die Niederschlagswerte des gewählten Tages lassen sich durch Klicken auf das Datum sortieren.
Die Angaben sind in l/m².

Wetterbeobachtungen Legende:

  • Regen
  • Nieselregen
  • Schneeregen
  • Schnee
  • Graupel
  • Eiskörner
  • Hagel
  • Bodennebel
  • Gewitter
  • Nebelnässe
  • Schneegriesel

Grafische Darstellung der Tagesniederschläge vom 07.01.2019

< 06.01.201908.01.2019 >Monats- und Jahresniederschlag


 
wetterstationen
wetterstationen
- derzeit 73 Stationen
niederschlagsdatenbank
wetterstationen
- kartographische Darstellung
niederschlagsdatenbank
niederschlagsstationen
- derzeit 103 Stationen
niederschlagsdatenbank
niederschlagsstationen
- kartographische Darstellung
 
 
Fr. 7.30 Uhr - Sa. 7.30 Uhr (MEZ)
1.Waldburg2,0 l/m²
2.Ulm1,5 l/m²
3.Amstetten-Reutti0,8 l/m²
4.Langenau0,5 l/m²
5.Dornstadt-Tomerdingen0,5 l/m²
6.Eberhardzell
Lilienweg
0,1 l/m²
7.Eislingen0,1 l/m²
8.Langenenslingen0,1 l/m²
9.Kreuzthal-Steinberg-Alpe0,0 l/m²
10.Ehingen
Rosenstraße
0,0 l/m²
11.Füramoos0,0 l/m²
12.Ehingen
Schillerstraße
0,0 l/m²
13.Ravensburg-Schmalegg0,0 l/m²
 
Sa. 19.01.2019 - 7.30 Uhr (MEZ)
1.Kreuzthal-Steinberg-Alpe108 cm
2.Isny54 cm
3.Leutkirch-Adrazhofen45 cm
4.Waldburg40 cm
5.Bad Wurzach-Seibranz39 cm
6.Münsingen-Rietheim34 cm
7.Schelklingen-Gundershofen24 cm
8.Eberhardzell
Lilienweg
19 cm
9.Amstetten-Reutti18 cm
10.Horgenzell-Ringgenweiler9 cm
11.Tuttlingen-Möhringen
Eßlinger Straße
8 cm
12.Ravensburg-Schmalegg7 cm
13.Langenenslingen2 cm
14.Ehingen
Schillerstraße
1 cm
15.Bad Saulgau
Walserweg
Reste
16.Ulmalles wieder weg
17.Moosburgstark angezuckert
18.AulendorfReste
19.BalzheimReste
20.Weingarten
Marienstraße
Reste
21.Riedhausenr
22.Pfaffenhofen-KadeltshofenReste
23.Langenauca 1cm
24.Öpfingen"Reste"
25.WolpertswendeReste
26.Weingarten
Laurastraße
Reste
 
  treffpunkt & service
--- Anzeigen --------------------------------
zugriffe:
insgesamt: 40.645.795
aktueller monat: 318.876
heute: 11.788
momentan online: 66
 
 
monatshöchstwert: 653.625
vorheriger monat: 400.931
gestern: 9.684
tageshöchstwert: 45.129
 
wetterwarte süd
 
konradstraße 3
info@wetterwarte-sued.com
roland roth
 
88427 bad schussenried